星链-5896 (STARLINK-5896 )

导读 | 豆包AI

STARLINK-5896是美国SpaceX公司星链星座的一员,于2023年3月17日发射升空。星链计划旨在建设全球覆盖的低轨卫星互联网,为全球提供高速低延迟宽带服务。作为低轨互联网卫星,该卫星运行于近地轨道,通过星座组网实现全球无缝互联网覆盖,支持偏远地区联网、移动终端直连等多种场景,服务覆盖全球多数国家和地区,是星链大规模组网过程中的重要组成部分。

Basic Information
目录编号:
55930
目录名称:
STARLINK-5896
国际标识:
2023-037S
轨道中心:
EARTH
卫星名称:
星链-5896
卫星全名:
星链-5896 (STARLINK-5896 )
卫星状态:
在轨 (已飞行1094 天)
发射日期:
2023-03-17 UTC
国别 :
美国 (US)
星等 :
--
Orbit Information
数据来源 国际轨道数据 AOE轨道数据
星历时间 2026-03-13T07:23:49+0800
2天前
查看轨道信息
2026-03-12T03:00:00+0800
3天前
查看轨道信息
半长轴 6952.288km 6950.212km
偏心率 0.0003057 0.0002121
轨道倾角 70.000° 70.002°
近地点辐角 225.673° 294.442°
升交点赤经 276.120° 279.092°
平近点角 134.417° 166.458°
近地点 572.025km 570.6km
远地点 576.277km 573.55km
周期 96.150分钟 96.107分钟
每日圈数 14.976528 14.98324
Detailed Information
固有亮度:
5
最大亮度:
2.5
卫星平台:
Starlink v1.5
覆盖范围:
全球
运营商:
太空探索技术公司
运营商所在国:
美国
制造商(研发单位):
太空探索技术公司
制造商所在国:
美国
使用方式:
暂无
Satellite Introduction
星链(Starlink)计划是由太空探索技术公司(SpaceX)提出的一个巨型低轨卫星互联网星座项目,计划在2019年至2024年间在太空搭建由约1.2万颗卫星组成的“星链”网络,其中1584颗将部署在地球上空550千米处的近地轨道,并从2020年开始工作。该卫星仍在工作。
2D Orbit Map
3D Orbit Map
Orbit Altitude Analysis Chart
Orbit Inclination Analysis Chart
Orbit Comprehensive Analysis Chart
View Comprehensive Chart